Wind_Speed
50 51 52 53 53 54 53 53 53 53 52 52 53 52 52 52 51 51 51 51 50 50 51 51 50 50 49 49 48 48 47 48 48 48 49 49 50 51 50 49 48 48 48
49 50 51 52 53 53 53 53 54 54 54 54 54 53 53 53 52 52 52 52 51 51 51 51 51 51 51 51 50 49 49 48 48 48 48 49 50 51 52 52 51 50 49
47 48 49 51 52 52 53 53 54 54 54 54 55 54 54 53 53 52 52 51 51 51 51 51 51 52 52 51 51 50 49 49 48 48 48 49 50 51 52 52 53 52 51
46 47 48 49 50 51 52 51 53 54 54 54 54 54 53 53 53 52 51 51 51 51 51 51 51 52 52 52 51 51 51 51 50 49 48 49 50 51 51 52 53 53 52
44 45 46 47 48 49 49 50 51 53 53 53 53 53 53 52 52 51 51 51 50 50 50 50 50 51 51 52 52 51 51 51 51 50 49 48 49 50 51 52 53 54 53
42 43 44 45 46 47 47 48 49 51 52 52 53 53 53 53 52 51 50 50 50 50 50 50 50 51 51 53 53 52 52 51 51 50 49 48 48 50 51 52 53 54 54
40 41 43 44 44 44 45 45 47 49 50 50 51 53 53 52 51 51 50 50 50 50 50 50 51 51 52 53 53 53 53 52 51 51 49 48 49 51 52 52 52 53 54
40 40 42 43 43 43 43 44 45 47 48 49 50 51 51 51 51 51 50 51 51 50 50 50 50 51 52 52 53 53 53 53 52 51 50 50 50 51 52 52 53 54 55
39 40 41 41 41 42 42 42 44 45 47 48 49 51 51 51 51 51 51 51 51 51 51 51 50 51 51 52 52 53 52 52 52 51 50 50 50 51 52 53 54 54 54
36 37 38 38 38 39 40 40 41 43 44 46 47 49 49 51 51 51 51 51 51 51 51 51 50 51 51 52 52 53 52 52 52 51 51 51 51 51 51 52 53 54 54
36 36 36 37 37 37 37 37 38 40 41 42 45 46 47 47 49 50 50 50 50 50 50 50 50 50 50 51 51 52 52 51 52 52 51 51 51 51 51 52 53 54 54
34 34 35 36 36 36 36 36 37 37 38 39 41 43 45 45 46 47 47 48 49 49 49 48 47 48 49 49 50 50 51 51 51 51 51 51 51 51 51 52 52 53 54
32 32 33 34 33 33 34 35 35 36 37 38 39 40 42 43 44 45 46 46 46 47 47 46 46 46 46 47 48 50 51 51 51 51 51 51 50 51 51 51 52 53 54
30 30 31 32 33 33 33 34 34 35 36 36 38 39 40 41 42 43 44 45 45 45 45 44 45 45 45 46 47 48 49 50 51 50 50 50 50 51 51 52 52 52 53
29 30 30 31 31 32 32 33 33 34 34 35 36 38 39 40 41 42 42 43 44 45 44 44 44 44 45 46 46 47 48 49 49 50 49 49 50 50 50 50 51 52 52
28 29 30 31 31 32 32 33 34 35 35 35 35 36 37 39 40 41 42 42 42 43 43 42 43 43 44 45 45 46 46 47 47 48 48 48 48 48 48 48 49 50 50
28 28 29 30 31 32 32 33 34 35 35 35 35 35 36 37 39 40 41 41 41 41 41 41 41 41 40 41 42 43 43 44 45 46 47 47 47 47 47 46 47 47 47
28 29 29 30 31 32 33 33 34 34 35 35 34 34 34 35 36 37 38 39 40 40 40 39 40 40 39 40 41 41 43 43 44 44 45 46 46 46 45 44 44 45 44
28 29 29 30 30 31 32 32 33 33 34 34 34 33 33 34 33 34 35 36 37 38 38 38 38 38 39 39 40 41 41 42 42 43 43 42 43 43 42 42 42 42 42
27 27 28 29 30 30 31 32 32 32 32 32 32 32 33 33 33 33 34 34 35 36 36 37 37 37 37 38 38 38 38 38 39 39 39 40 40 40 40 40 40 41 41
26 26 27 28 28 28 29 29 30 30 31 31 32 32 32 32 32 33 33 34 34 35 36 36 36 37 37 37 36 36 36 36 36 37 37 37 38 37 38 38 39 40 40
25 25 26 26 26 26 26 26 26 27 28 28 29 30 31 32 32 32 32 33 34 34 34 34 35 35 35 35 35 35 35 35 35 35 35 36 36 36 36 37 38 38 38
24 24 24 24 24 25 24 23 23 23 24 25 26 27 28 29 29 30 31 32 32 32 32 32 32 33 33 34 34 34 34 34 34 34 34 34 35 35 36 36 36 36 37
22 21 21 21 21 21 21 21 21 21 22 23 24 25 25 26 26 27 28 29 30 31 31 31 31 31 32 32 33 33 32 32 31 32 32 33 34 34 34 34 34 34 35
21 20 19 19 19 19 19 19 19 19 20 20 21 21 22 23 24 25 25 26 28 29 29 29 29 29 29 30 30 30 31 31 31 31 31 31 31 32 32 33 33 34 34
20 20 19 19 18 18 18 18 18 19 19 19 19 20 21 22 22 23 24 25 26 27 28 28 29 29 28 29 29 29 29 29 29 29 29 29 29 30 31 32 32 32 33
Wind_Direction
262 260 259 258 257 257 257 256 256 255 255 253 253 253 254 255 255 254 254 254 254 254 255 254 254 254 254 254 254 254 255 255 254 253 252 251 251 251 251 250 250 249 249
263 262 261 259 258 258 257 256 256 255 254 254 253 253 253 254 254 254 254 254 254 255 254 254 253 253 254 254 254 255 256 256 256 255 253 252 252 252 252 251 251 250 250
265 263 261 260 259 259 258 256 256 255 254 254 253 253 253 253 254 253 254 253 254 254 254 254 253 253 253 253 254 255 255 255 255 254 253 253 252 252 253 253 253 252 251
266 264 262 261 259 258 258 257 256 256 254 254 253 253 252 252 252 252 252 252 253 253 254 254 253 253 253 253 254 254 254 255 255 254 253 253 253 253 253 253 253 253 252
267 266 264 262 259 258 259 257 256 256 254 253 253 252 251 251 251 251 251 252 252 253 254 254 253 252 252 252 253 254 255 255 255 254 254 254 253 253 253 253 254 253 253
268 267 264 263 260 259 259 258 257 256 255 253 252 251 250 250 250 250 251 252 252 252 253 253 253 253 253 253 254 254 255 256 256 255 255 255 255 255 254 254 254 254 253
270 268 266 263 262 260 259 258 257 256 255 253 252 250 249 249 249 250 250 251 251 252 252 252 253 254 254 255 255 255 256 256 256 255 256 256 256 256 256 255 255 254 254
270 268 267 264 262 261 260 258 257 256 254 253 252 251 250 249 249 250 250 251 251 251 252 253 253 254 254 254 255 255 256 256 256 256 257 257 256 256 257 257 256 255 255
271 269 267 265 263 261 260 258 258 257 256 253 252 251 250 249 249 249 250 250 250 251 252 252 253 254 254 255 255 255 255 255 255 257 258 259 258 258 258 258 258 258 257
272 269 266 265 264 263 261 259 259 258 257 254 252 251 250 249 249 249 250 250 250 251 252 252 253 254 254 254 254 255 255 255 256 258 259 259 259 258 258 259 260 259 258
273 269 267 264 264 264 261 260 260 259 258 256 253 250 249 249 249 248 249 251 251 251 251 252 253 254 254 254 254 254 255 256 256 258 258 258 259 259 260 260 260 260 259
272 270 268 264 262 263 261 261 260 259 258 256 253 251 248 249 249 248 249 251 251 252 252 253 253 254 254 254 254 255 256 257 258 258 259 260 260 261 261 261 261 261 260
271 270 269 266 262 263 262 261 261 259 256 255 253 251 249 249 250 249 249 250 252 253 253 253 253 254 254 255 255 256 257 258 259 260 260 261 261 262 262 262 262 261 261
270 269 269 265 263 262 263 263 262 261 257 254 253 251 250 250 250 250 250 250 252 253 253 253 254 254 254 255 255 256 257 258 259 260 261 262 262 263 263 263 263 262 261
270 268 267 265 263 263 262 263 263 262 259 256 255 255 253 251 250 250 251 252 253 254 254 253 253 254 254 254 255 257 258 258 259 259 261 262 262 264 264 264 263 261 261
270 268 267 266 264 264 262 263 263 263 261 259 258 257 255 254 252 251 251 253 254 254 254 254 254 254 255 254 255 256 257 258 259 260 260 261 262 264 264 264 263 262 261
271 269 268 267 266 265 265 264 263 263 263 261 259 259 258 256 254 252 253 254 254 254 254 254 254 255 255 254 255 255 256 259 260 261 261 261 262 263 263 263 262 261 260
274 271 270 269 268 266 266 265 264 262 262 262 261 260 260 258 255 254 254 254 253 253 253 254 254 255 255 256 256 257 258 260 261 261 262 262 262 262 261 261 261 260 259
275 273 272 271 269 268 267 265 264 263 262 261 260 260 260 259 257 256 255 254 253 252 253 254 255 257 257 257 257 258 259 260 261 261 262 261 261 261 259 259 259 259 258
277 274 273 273 271 271 270 267 265 264 262 261 260 259 259 259 258 258 258 257 254 253 253 255 256 257 257 257 258 258 258 259 260 260 260 259 259 259 258 258 258 257 257
280 277 275 274 273 273 272 269 266 264 262 260 259 260 259 259 258 257 256 255 254 253 254 255 256 257 257 258 258 258 259 259 259 258 259 258 258 258 257 257 257 257 256
284 281 278 275 274 273 272 270 267 264 262 261 261 262 262 261 260 259 257 255 254 254 256 258 258 258 258 259 259 259 259 258 258 257 257 258 258 258 258 258 257 257 256
285 282 280 278 275 272 270 268 265 264 263 262 261 261 261 260 259 259 258 256 256 257 258 258 257 258 257 257 257 258 258 259 258 258 258 259 259 258 257 257 257 256 256
286 283 281 279 276 271 268 266 265 264 264 263 262 260 260 259 258 258 257 256 256 256 257 257 257 257 256 255 256 257 258 258 258 258 260 260 259 258 258 257 256 256 256
286 284 282 281 277 270 266 265 264 263 264 264 262 260 259 259 260 260 259 259 259 258 257 256 256 256 255 255 255 256 256 257 257 258 259 260 259 258 258 258 257 257 257
284 282 280 279 276 271 266 264 264 264 265 265 264 263 262 261 261 261 260 259 258 258 257 256 256 256 256 255 255 255 256 256 257 258 258 258 259 259 259 258 258 258 258
Height
5577 5578 5580 5582 5583 5585 5587 5590 5592 5594 5596 5599 5602 5604 5607 5609 5612 5614 5617 5619 5622 5624 5626 5629 5632 5634 5636 5639 5641 5644 5647 5649 5652 5657 5659 5661 5663 5666 5669 5672 5675 5678 5682
5562 5563 5564 5566 5567 5569 5571 5574 5576 5578 5581 5584 5586 5589 5592 5595 5597 5600 5603 5605 5608 5611 5613 5615 5618 5620 5623 5626 5628 5631 5633 5636 5638 5642 5645 5648 5650 5652 5655 5658 5661 5664 5668
5547 5548 5549 5550 5552 5553 5555 5557 5560 5562 5565 5568 5571 5574 5577 5580 5583 5586 5588 5591 5594 5597 5599 5602 5604 5607 5609 5612 5614 5617 5619 5622 5624 5627 5631 5634 5637 5639 5641 5644 5647 5650 5654
5533 5533 5534 5535 5536 5538 5539 5542 5544 5546 5549 5552 5555 5559 5562 5566 5568 5571 5574 5577 5580 5582 5585 5588 5590 5593 5595 5598 5600 5603 5605 5608 5610 5613 5617 5620 5622 5624 5627 5629 5633 5636 5639
5520 5520 5520 5521 5522 5523 5525 5527 5529 5531 5534 5537 5540 5543 5546 5550 5554 5557 5560 5563 5566 5568 5571 5574 5576 5578 5581 5583 5586 5589 5591 5594 5596 5599 5602 5605 5608 5610 5613 5615 5618 5621 5625
5507 5507 5507 5507 5508 5509 5510 5512 5514 5516 5518 5521 5525 5528 5531 5535 5539 5543 5546 5549 5552 5554 5557 5560 5562 5564 5567 5569 5572 5575 5577 5580 5582 5585 5588 5591 5594 5596 5597 5600 5602 5606 5611
5495 5495 5495 5494 5495 5496 5497 5498 5500 5501 5504 5506 5509 5512 5516 5520 5524 5528 5531 5534 5537 5540 5543 5546 5548 5551 5553 5556 5558 5561 5563 5565 5568 5571 5574 5577 5579 5582 5583 5585 5587 5589 5594
5483 5482 5481 5481 5482 5483 5484 5485 5486 5488 5490 5492 5495 5498 5502 5506 5510 5513 5517 5519 5523 5526 5529 5531 5534 5537 5539 5541 5544 5547 5549 5552 5554 5557 5560 5563 5564 5565 5566 5569 5570 5573 5578
5471 5470 5469 5470 5470 5470 5471 5472 5473 5474 5476 5478 5481 5484 5488 5492 5495 5499 5502 5505 5508 5511 5514 5517 5519 5522 5525 5527 5530 5533 5535 5538 5540 5542 5544 5547 5548 5550 5551 5552 5555 5558 5562
5459 5458 5458 5458 5458 5458 5459 5460 5461 5462 5463 5465 5467 5470 5474 5477 5481 5484 5487 5490 5494 5498 5501 5503 5505 5508 5510 5512 5514 5518 5521 5524 5526 5527 5530 5532 5534 5535 5536 5538 5540 5542 5545
5448 5447 5446 5446 5447 5447 5448 5448 5449 5449 5451 5452 5454 5457 5460 5463 5467 5470 5473 5475 5479 5483 5486 5489 5491 5493 5496 5498 5500 5503 5507 5509 5511 5513 5515 5517 5519 5521 5522 5523 5524 5526 5529
5438 5437 5436 5436 5436 5436 5436 5437 5437 5438 5439 5440 5441 5444 5447 5450 5453 5456 5459 5462 5465 5469 5472 5475 5478 5480 5482 5484 5486 5489 5492 5494 5496 5498 5500 5503 5505 5506 5507 5508 5509 5510 5512
5428 5427 5426 5426 5426 5425 5426 5427 5427 5427 5428 5429 5430 5432 5435 5438 5441 5444 5447 5449 5452 5455 5459 5462 5464 5466 5468 5470 5473 5475 5477 5479 5481 5483 5486 5488 5490 5491 5491 5491 5492 5493 5495
5418 5417 5417 5416 5416 5416 5416 5417 5417 5417 5418 5418 5420 5421 5424 5427 5430 5432 5434 5437 5440 5442 5445 5448 5451 5453 5455 5457 5459 5461 5462 5464 5466 5469 5471 5473 5474 5474 5475 5476 5477 5478 5479
5409 5409 5408 5408 5408 5407 5407 5407 5408 5408 5408 5409 5410 5412 5414 5417 5419 5421 5423 5426 5428 5431 5433 5436 5438 5440 5441 5443 5445 5447 5449 5450 5452 5454 5456 5457 5458 5458 5459 5460 5460 5461 5463
5401 5400 5399 5399 5399 5398 5398 5398 5398 5399 5399 5400 5401 5402 5404 5406 5408 5410 5413 5415 5416 5419 5421 5423 5425 5427 5428 5430 5432 5434 5435 5437 5439 5440 5441 5442 5443 5444 5444 5445 5445 5446 5447
5391 5391 5390 5390 5389 5389 5389 5389 5389 5389 5389 5390 5391 5392 5393 5395 5397 5399 5401 5403 5405 5407 5409 5411 5413 5414 5416 5418 5420 5421 5423 5424 5425 5426 5427 5428 5429 5430 5430 5430 5430 5431 5433
5383 5382 5381 5381 5380 5380 5380 5380 5380 5380 5380 5380 5381 5382 5383 5385 5386 5388 5390 5392 5394 5395 5397 5399 5401 5403 5404 5406 5408 5409 5410 5411 5412 5412 5413 5414 5415 5415 5416 5416 5417 5418 5420
5374 5373 5372 5372 5371 5370 5370 5370 5370 5370 5371 5371 5372 5373 5374 5375 5376 5378 5379 5381 5383 5384 5386 5388 5390 5391 5393 5394 5395 5397 5398 5398 5399 5399 5400 5400 5401 5401 5402 5403 5404 5406 5407
5366 5364 5363 5363 5362 5361 5360 5360 5360 5360 5361 5362 5363 5364 5365 5366 5367 5368 5369 5370 5372 5373 5375 5377 5378 5380 5381 5382 5383 5384 5385 5386 5386 5386 5387 5388 5388 5389 5390 5391 5392 5394 5395
5357 5356 5355 5354 5353 5352 5351 5350 5350 5351 5352 5353 5354 5354 5355 5356 5357 5358 5359 5360 5361 5363 5365 5366 5367 5369 5370 5371 5372 5372 5373 5374 5374 5375 5376 5376 5377 5378 5379 5380 5381 5382 5384
5350 5348 5346 5345 5344 5343 5342 5342 5342 5342 5343 5344 5345 5345 5346 5347 5348 5349 5349 5350 5352 5353 5355 5356 5357 5358 5359 5360 5360 5361 5362 5363 5364 5364 5365 5366 5366 5367 5368 5369 5370 5371 5372
5342 5340 5338 5337 5335 5334 5334 5334 5334 5334 5335 5336 5336 5337 5338 5338 5339 5339 5340 5341 5342 5343 5345 5346 5346 5347 5348 5349 5350 5351 5352 5353 5354 5354 5355 5355 5356 5357 5358 5359 5359 5361 5362
5335 5333 5331 5330 5328 5327 5327 5327 5327 5327 5327 5328 5328 5329 5329 5329 5330 5331 5331 5332 5333 5334 5335 5336 5337 5338 5338 5339 5340 5341 5342 5343 5344 5344 5345 5346 5346 5347 5348 5348 5349 5351 5352
5328 5326 5325 5324 5322 5321 5321 5321 5321 5321 5321 5321 5321 5322 5322 5322 5322 5322 5323 5323 5324 5325 5326 5327 5327 5328 5329 5330 5331 5332 5333 5334 5334 5335 5336 5336 5337 5338 5338 5339 5340 5341 5342
5322 5320 5319 5318 5316 5316 5315 5315 5315 5315 5315 5315 5315 5315 5315 5315 5315 5315 5315 5315 5316 5317 5317 5318 5319 5319 5320 5321 5322 5323 5324 5324 5325 5326 5326 5327 5328 5329 5329 5330 5331 5332 5333